FW4179 Weather Reports


time (UTC)temp
C
wind
direction
speed
KPH
gust
KPH
rain 1hr
cm
rain 24hr
cm
rain mn
cm
humidity
%
barometer
mb
20260903143109 29 0 0.0 6.4 0.00 0.00 0.00 77 1019.5
20260903141605 28 0 0.0 0.0 0.00 0.00 0.00 79 1019.4
20260903140056 27 0 0.0 0.0 0.00 0.00 0.00 82 1019.5
20260903134600 26 0 0.0 0.0 0.00 0.00 0.00 87 1019.5
20260903133100 25 0 0.0 0.0 0.00 0.00 0.00 88 1019.6
20260903131601 25 0 0.0 0.0 0.00 0.00 0.00 89 1019.6
20260903130100 24 170 1.6 8.0 0.00 0.00 0.00 90 1019.6
20260903124605 23 0 0.0 3.2 0.00 0.00 0.00 92 1019.6
20260903123055 22 0 0.0 0.0 0.00 0.00 0.00 95 1019.6
20260903121555 22 0 0.0 0.0 0.00 0.00 0.00 96 1019.6
20260903120106 22 0 0.0 0.0 0.00 0.00 0.00 96 1019.3
20260903114602 22 0 0.0 0.0 0.00 0.00 0.00 96 1019.2
20260903113058 22 0 0.0 0.0 0.00 0.00 0.00 95 1019.2
20260903111558 22 0 0.0 0.0 0.00 0.00 0.00 95 1019.1
20260903110056 22 0 0.0 0.0 0.00 0.00 0.00 95 1019.0
20260903104605 22 0 0.0 0.0 0.00 0.00 0.00 95 1018.7
20260903103103 22 0 0.0 0.0 0.00 0.00 0.00 94 1018.6
20260903101608 22 0 0.0 0.0 0.00 0.00 0.00 94 1018.5
20260903100056 22 0 0.0 0.0 0.00 0.00 0.00 95 1018.6
20260903094605 22 0 0.0 0.0 0.00 0.00 0.00 95 1018.6
20260903093110 22 0 0.0 0.0 0.00 0.00 0.00 94 1018.6
20260903091557 23 0 0.0 0.0 0.00 0.00 0.00 94 1018.8
20260903090059 23 0 0.0 1.6 0.00 0.00 0.00 94 1018.6
20260903084601 23 0 0.0 0.0 0.00 0.00 0.00 94 1018.6
20260903083053 23 0 0.0 0.0 0.00 0.00 0.00 94 1018.6
20260903081557 23 0 0.0 0.0 0.00 0.00 0.00 94 1018.6
20260903080049 23 0 0.0 0.0 0.00 0.00 0.00 94 1018.6
20260903074556 23 0 0.0 0.0 0.00 0.00 0.00 93 1018.5
20260903073056 23 0 0.0 1.6 0.00 0.00 0.00 95 1018.5
20260903071553 23 0 0.0 0.0 0.00 0.00 0.00 94 1018.5
20260903070109 23 0 0.0 0.0 0.00 0.00 0.00 94 1018.4
20260903064557 23 0 0.0 0.0 0.00 0.00 0.00 93 1018.4
20260903063124 23 0 0.0 0.0 0.00 0.00 0.00 93 1018.5
20260903061554 24 0 0.0 0.0 0.00 0.00 0.00 93 1018.5
20260903060117 24 0 0.0 0.0 0.00 0.00 0.00 92 1018.4
20260903054600 24 0 0.0 0.0 0.00 0.00 0.00 92 1018.5
20260903053056 25 0 0.0 0.0 0.00 0.00 0.00 90 1018.4
20260903051559 25 0 0.0 0.0 0.00 0.00 0.00 89 1018.5
20260903050129 25 0 0.0 0.0 0.00 0.00 0.00 87 1018.5
20260903044559 26 0 0.0 0.0 0.00 0.00 0.00 86 1018.6
20260903043058 26 0 0.0 0.0 0.00 0.00 0.00 86 1018.4
20260903041559 26 0 0.0 0.0 0.00 0.00 0.00 86 1018.6
20260903040101 26 0 0.0 0.0 0.00 0.00 0.00 85 1018.6
20260903034600 26 0 0.0 0.0 0.00 0.00 0.00 83 1018.6
20260903033057 27 0 0.0 3.2 0.00 0.00 0.00 82 1018.6
20260903031559 27 0 1.6 3.2 0.00 0.00 0.00 81 1018.6
20260903030058 27 0 0.0 0.0 0.00 0.00 0.00 82 1018.7
20260903024602 27 0 0.0 0.0 0.00 0.00 0.00 82 1018.6
20260903023058 27 0 0.0 0.0 0.00 0.00 0.00 82 1018.6
20260903021559 27 0 0.0 0.0 0.00 0.00 0.00 80 1018.9
20260903020054 28 0 0.0 0.0 0.00 0.00 0.00 79 1018.6
20260903014555 28 0 0.0 0.0 0.00 0.00 0.00 77 1018.5
20260903013057 28 0 0.0 0.0 0.00 0.00 0.00 75 1018.4
20260903011606 30 0 0.0 0.0 0.00 0.00 0.00 71 1018.3
20260903010056 30 0 0.0 0.0 0.00 0.00 0.00 68 1018.2
20260903004636 31 0 0.0 0.0 0.00 0.00 0.00 68 1018.1
20260903003058 31 0 0.0 0.0 0.00 0.00 0.00 66 1018.2
20260903001555 32 0 0.0 0.0 0.00 0.00 0.00 63 1018.2
20260903000101 33 0 0.0 3.2 0.00 0.00 0.00 60 1018.1
20260902234554 35 0 0.0 0.0 0.00 0.00 0.00 53 1018.1
20260902233100 36 0 0.0 0.0 0.00 0.00 0.00 52 1018.0
20260902231605 36 0 0.0 0.0 0.00 0.00 0.00 49 1018.1
20260902230059 36 0 0.0 0.0 0.00 0.00 0.00 48 1018.1
20260902224600 36 0 0.0 1.6 0.00 0.00 0.00 48 1018.2
20260902223101 37 0 0.0 4.8 0.00 0.00 0.00 47 1018.1
20260902221600 36 0 0.0 0.0 0.00 0.00 0.00 47 1018.3
20260902220053 36 0 0.0 3.2 0.00 0.00 0.00 50 1018.3
20260902214601 36 360 0.0 6.4 0.00 0.00 0.00 49 1018.2
20260902213059 36 0 1.6 4.8 0.00 0.00 0.00 49 1018.3
20260902211555 36 344 0.0 6.4 0.00 0.00 0.00 50 1018.3
20260902210056 35 0 0.0 6.4 0.00 0.00 0.00 54 1018.4
20260902204555 35 282 0.0 11.3 0.00 0.00 0.00 55 1018.5
20260902203057 34 298 0.0 6.4 0.00 0.00 0.00 56 1018.6
20260902201556 35 284 1.6 11.3 0.00 0.00 0.00 51 1018.9
20260902200110 35 0 1.6 8.0 0.00 0.00 0.00 50 1018.9
20260902194604 35 241 3.2 11.3 0.00 0.00 0.00 50 1019.2
20260902193057 35 98 0.0 6.4 0.00 0.00 0.00 51 1019.3
20260902191556 35 171 0.0 14.5 0.00 0.00 0.00 50 1019.5
20260902190050 35 273 3.2 12.9 0.00 0.00 0.00 51 1019.7
20260902184601 34 0 0.0 6.4 0.00 0.00 0.00 53 1019.9
20260902183059 35 83 0.0 11.3 0.00 0.00 0.00 54 1019.9
20260902181601 34 263 3.2 9.7 0.00 0.00 0.00 57 1020.0
20260902180122 34 270 3.2 9.7 0.00 0.00 0.00 53 1020.2
20260902174557 34 0 0.0 9.7 0.00 0.00 0.00 58 1020.3
20260902173057 33 0 0.0 4.8 0.00 0.00 0.00 60 1020.5
20260902171602 33 0 1.6 6.4 0.00 0.00 0.00 57 1020.7
20260902170057 33 305 1.6 8.0 0.00 0.00 0.00 58 1021.0
20260902164553 33 0 0.0 8.0 0.00 0.00 0.00 59 1021.3
20260902163104 32 275 1.6 9.7 0.00 0.00 0.00 64 1021.4
20260902161601 32 252 3.2 9.7 0.00 0.00 0.00 62 1021.5
20260902160058 31 0 0.0 6.4 0.00 0.00 0.00 65 1021.7
20260902154550 31 0 0.0 6.4 0.00 0.00 0.00 71 1021.6
20260902153058 31 0 1.6 4.8 0.00 0.00 0.00 69 1021.7
20260902151551 31 200 0.0 3.2 0.00 0.00 0.00 73 1021.8
20260902150058 30 0 1.6 6.4 0.00 0.00 0.00 76 1021.8
20260902144558 30 0 0.0 3.2 0.00 0.00 0.00 76 1021.6